| time (UTC) | temp F | wind direction | speed MPH | gust MPH | rain 1hr in | rain 24hr in | rain mn in | humidity % | barometer mb |
| 20260509021907 | 63 | 315 | 5.0 | 11.0 | 0.00 | 0.00 | 0.00 | 35 | 999.8 |
| 20260509021402 | 63 | 293 | 6.0 | 16.0 | 0.00 | 0.00 | 0.00 | 34 | 999.7 |
| 20260509020902 | 64 | 345 | 6.0 | 16.0 | 0.00 | 0.00 | 0.00 | 35 | 999.6 |
| 20260509020401 | 64 | 348 | 6.0 | 15.0 | 0.00 | 0.00 | 0.00 | 35 | 999.6 |
| 20260509015903 | 65 | 300 | 5.0 | 13.0 | 0.00 | 0.00 | 0.00 | 35 | 999.5 |
| 20260509015614 | 65 | 307 | 6.0 | 13.0 | 0.00 | 0.00 | 0.00 | 34 | 999.3 |
| 20260509014850 | 65 | 294 | 5.0 | 11.0 | 0.00 | 0.00 | 0.00 | 34 | 999.1 |
| 20260509014349 | 65 | 273 | 4.0 | 11.0 | 0.00 | 0.00 | 0.00 | 33 | 999.1 |
| 20260509013847 | 66 | 324 | 4.0 | 12.0 | 0.00 | 0.00 | 0.00 | 33 | 999.0 |
| 20260509013344 | 66 | 315 | 3.0 | 12.0 | 0.00 | 0.00 | 0.00 | 32 | 998.9 |
| 20260509012842 | 66 | 279 | 2.0 | 11.0 | 0.00 | 0.00 | 0.00 | 32 | 998.7 |
| 20260509012339 | 67 | 302 | 3.0 | 11.0 | 0.00 | 0.00 | 0.00 | 30 | 998.7 |
| 20260509011833 | 67 | 279 | 3.0 | 11.0 | 0.00 | 0.00 | 0.00 | 30 | 998.6 |
| 20260509011324 | 67 | 307 | 3.0 | 10.0 | 0.00 | 0.00 | 0.00 | 29 | 998.5 |
| 20260509010821 | 67 | 283 | 3.0 | 10.0 | 0.00 | 0.00 | 0.00 | 29 | 998.6 |
| 20260509010322 | 68 | 355 | 3.0 | 10.0 | 0.00 | 0.00 | 0.00 | 29 | 998.4 |
| 20260509005815 | 68 | 238 | 3.0 | 10.0 | 0.00 | 0.00 | 0.00 | 28 | 998.4 |
| 20260509005309 | 68 | 292 | 4.0 | 10.0 | 0.00 | 0.00 | 0.00 | 28 | 998.4 |
| 20260509004810 | 68 | 311 | 3.0 | 9.0 | 0.00 | 0.00 | 0.00 | 28 | 998.3 |
| 20260509004307 | 69 | 291 | 3.0 | 7.0 | 0.00 | 0.00 | 0.00 | 28 | 998.4 |
| 20260509003810 | 69 | 267 | 3.0 | 9.0 | 0.00 | 0.00 | 0.00 | 28 | 998.4 |
| 20260509003304 | 69 | 298 | 3.0 | 9.0 | 0.00 | 0.00 | 0.00 | 28 | 998.3 |
| 20260509002753 | 69 | 285 | 4.0 | 11.0 | 0.00 | 0.00 | 0.00 | 27 | 998.3 |
| 20260509002510 | 69 | 319 | 5.0 | 11.0 | 0.00 | 0.00 | 0.00 | 26 | 998.4 |
| 20260509001751 | 70 | 30 | 5.0 | 14.0 | 0.00 | 0.00 | 0.00 | 27 | 998.3 |
| 20260509001253 | 70 | 315 | 5.0 | 14.0 | 0.00 | 0.00 | 0.00 | 27 | 998.3 |
| 20260509000750 | 70 | 310 | 4.0 | 16.0 | 0.00 | 0.00 | 0.00 | 27 | 998.3 |
| 20260509000250 | 71 | 306 | 3.0 | 16.0 | 0.00 | 0.00 | 0.00 | 28 | 998.2 |
| 20260508235750 | 71 | 261 | 4.0 | 12.0 | 0.00 | 0.00 | 0.00 | 26 | 998.2 |
| 20260508235250 | 71 | 323 | 4.0 | 13.0 | 0.00 | 0.00 | 0.00 | 28 | 998.4 |
| 20260508234748 | 71 | 273 | 4.0 | 13.0 | 0.00 | 0.00 | 0.00 | 27 | 998.3 |
| 20260508234245 | 71 | 296 | 3.0 | 9.0 | 0.00 | 0.00 | 0.00 | 28 | 998.3 |
| 20260508233741 | 71 | 259 | 3.0 | 9.0 | 0.00 | 0.00 | 0.00 | 28 | 998.4 |
| 20260508233232 | 71 | 306 | 3.0 | 9.0 | 0.00 | 0.00 | 0.00 | 29 | 998.4 |
| 20260508232732 | 70 | 322 | 4.0 | 10.0 | 0.00 | 0.00 | 0.00 | 27 | 998.5 |
| 20260508232232 | 71 | 305 | 4.0 | 10.0 | 0.00 | 0.00 | 0.00 | 28 | 998.5 |
| 20260508231731 | 71 | 251 | 4.0 | 11.0 | 0.00 | 0.00 | 0.00 | 28 | 998.6 |
| 20260508231232 | 70 | 306 | 5.0 | 11.0 | 0.00 | 0.00 | 0.00 | 28 | 998.6 |
| 20260508230729 | 70 | 302 | 5.0 | 17.0 | 0.00 | 0.00 | 0.00 | 28 | 998.6 |
| 20260508230222 | 71 | 264 | 4.0 | 17.0 | 0.00 | 0.00 | 0.00 | 28 | 998.6 |
| 20260508225700 | 71 | 293 | 4.0 | 10.0 | 0.00 | 0.00 | 0.00 | 27 | 998.6 |
| 20260508225159 | 71 | 300 | 5.0 | 10.0 | 0.00 | 0.00 | 0.00 | 28 | 998.5 |
| 20260508224652 | 72 | 306 | 4.0 | 10.0 | 0.00 | 0.00 | 0.00 | 28 | 998.6 |
| 20260508224147 | 71 | 284 | 4.0 | 12.0 | 0.00 | 0.00 | 0.00 | 28 | 998.7 |
| 20260508223910 | 71 | 302 | 4.0 | 12.0 | 0.00 | 0.00 | 0.00 | 28 | 998.7 |
| 20260508223143 | 72 | 345 | 4.0 | 10.0 | 0.00 | 0.00 | 0.00 | 28 | 998.8 |
| 20260508222915 | 71 | 217 | 3.0 | 13.0 | 0.00 | 0.00 | 0.00 | 28 | 998.8 |
| 20260508222140 | 71 | 252 | 4.0 | 13.0 | 0.00 | 0.00 | 0.00 | 27 | 998.8 |
| 20260508221639 | 71 | 345 | 4.0 | 12.0 | 0.00 | 0.00 | 0.00 | 29 | 998.9 |
| 20260508221614 | 71 | 310 | 5.0 | 16.0 | 0.00 | 0.00 | 0.00 | 28 | 999.0 |
| 20260508220631 | 71 | 104 | 5.0 | 16.0 | 0.00 | 0.00 | 0.00 | 27 | 998.9 |
| 20260508220132 | 71 | 288 | 4.0 | 15.0 | 0.00 | 0.00 | 0.00 | 26 | 999.0 |
| 20260508215606 | 71 | 308 | 5.0 | 15.0 | 0.00 | 0.00 | 0.00 | 27 | 999.0 |
| 20260508215332 | 71 | 259 | 6.0 | 15.0 | 0.00 | 0.00 | 0.00 | 28 | 999.1 |
| 20260508214603 | 71 | 192 | 6.0 | 15.0 | 0.00 | 0.00 | 0.00 | 27 | 999.2 |
| 20260508214332 | 71 | 250 | 4.0 | 13.0 | 0.00 | 0.00 | 0.00 | 26 | 999.2 |
| 20260508213603 | 72 | 267 | 6.0 | 22.0 | 0.00 | 0.00 | 0.00 | 25 | 999.3 |
| 20260508213054 | 72 | 271 | 7.0 | 22.0 | 0.00 | 0.00 | 0.00 | 27 | 999.4 |
| 20260508212553 | 72 | 284 | 6.0 | 17.0 | 0.00 | 0.00 | 0.00 | 27 | 999.4 |
| 20260508212317 | 72 | 262 | 6.0 | 17.0 | 0.00 | 0.00 | 0.00 | 26 | 999.4 |
| 20260508211554 | 72 | 318 | 8.0 | 18.0 | 0.00 | 0.00 | 0.00 | 26 | 999.4 |
| 20260508211054 | 72 | 217 | 7.0 | 18.0 | 0.00 | 0.00 | 0.00 | 27 | 999.4 |
| 20260508210552 | 72 | 245 | 5.0 | 17.0 | 0.00 | 0.00 | 0.00 | 27 | 999.5 |
| 20260508210048 | 71 | 173 | 7.0 | 16.0 | 0.00 | 0.00 | 0.00 | 28 | 999.7 |
| 20260508205549 | 72 | 259 | 8.0 | 16.0 | 0.00 | 0.00 | 0.00 | 26 | 999.7 |
| 20260508205049 | 71 | 271 | 7.0 | 17.0 | 0.00 | 0.00 | 0.00 | 30 | 999.7 |
| 20260508204547 | 71 | 248 | 5.0 | 17.0 | 0.00 | 0.00 | 0.00 | 29 | 1000.0 |
| 20260508204309 | 70 | 279 | 4.0 | 16.0 | 0.00 | 0.00 | 0.00 | 31 | 1000.1 |
| 20260508203542 | 70 | 277 | 5.0 | 16.0 | 0.00 | 0.00 | 0.00 | 29 | 1000.2 |
| 20260508203311 | 71 | 329 | 7.0 | 16.0 | 0.00 | 0.00 | 0.00 | 28 | 1000.2 |
| 20260508202758 | 71 | 254 | 8.0 | 15.0 | 0.00 | 0.00 | 0.00 | 28 | 1000.3 |
| 20260508202037 | 71 | 293 | 9.0 | 24.0 | 0.00 | 0.00 | 0.00 | 29 | 1000.5 |
| 20260508201532 | 71 | 258 | 9.0 | 24.0 | 0.00 | 0.00 | 0.00 | 28 | 1000.5 |
| 20260508201033 | 71 | 246 | 9.0 | 18.0 | 0.00 | 0.00 | 0.00 | 29 | 1000.6 |
| 20260508200535 | 71 | 236 | 7.0 | 17.0 | 0.00 | 0.00 | 0.00 | 29 | 1000.7 |
| 20260508200255 | 70 | 333 | 5.0 | 17.0 | 0.00 | 0.00 | 0.00 | 28 | 1000.7 |
| 20260508195533 | 71 | 303 | 6.0 | 14.0 | 0.00 | 0.00 | 0.00 | 29 | 1000.7 |
| 20260508195255 | 71 | 230 | 5.0 | 15.0 | 0.00 | 0.00 | 0.00 | 32 | 1000.8 |
| 20260508194752 | 70 | 234 | 3.0 | 15.0 | 0.00 | 0.00 | 0.00 | 29 | 1000.8 |
| 20260508194028 | 70 | 150 | 4.0 | 15.0 | 0.00 | 0.00 | 0.00 | 28 | 1000.9 |
| 20260508193524 | 70 | 20 | 6.0 | 15.0 | 0.00 | 0.00 | 0.00 | 28 | 1001.2 |
| 20260508193512 | 69 | 293 | 6.0 | 13.0 | 0.00 | 0.00 | 0.00 | 28 | 1001.2 |
| 20260508192522 | 69 | 271 | 7.0 | 15.0 | 0.00 | 0.00 | 0.00 | 33 | 1001.2 |
| 20260508192021 | 69 | 298 | 6.0 | 15.0 | 0.00 | 0.00 | 0.00 | 29 | 1001.2 |
| 20260508191520 | 68 | 242 | 4.0 | 13.0 | 0.00 | 0.00 | 0.00 | 29 | 1001.4 |
| 20260508191236 | 68 | 304 | 5.0 | 11.0 | 0.00 | 0.00 | 0.00 | 28 | 1001.4 |
| 20260508190517 | 69 | 290 | 5.0 | 16.0 | 0.00 | 0.00 | 0.00 | 30 | 1001.5 |
| 20260508190014 | 69 | 245 | 5.0 | 16.0 | 0.00 | 0.00 | 0.00 | 29 | 1001.5 |
| 20260508185743 | 68 | 273 | 6.0 | 16.0 | 0.00 | 0.00 | 0.00 | 30 | 1001.6 |
| 20260508185017 | 68 | 349 | 6.0 | 16.0 | 0.00 | 0.00 | 0.00 | 31 | 1001.6 |
| 20260508184514 | 68 | 288 | 6.0 | 13.0 | 0.00 | 0.00 | 0.00 | 29 | 1001.7 |
| 20260508184016 | 68 | 257 | 5.0 | 13.0 | 0.00 | 0.00 | 0.00 | 29 | 1001.8 |
| 20260508183513 | 68 | 286 | 4.0 | 13.0 | 0.00 | 0.00 | 0.00 | 34 | 1001.8 |
| 20260508183012 | 68 | 208 | 4.0 | 11.0 | 0.00 | 0.00 | 0.00 | 32 | 1001.9 |
| 20260508182736 | 67 | 294 | 5.0 | 11.0 | 0.00 | 0.00 | 0.00 | 29 | 1002.0 |
| 20260508182232 | 67 | 304 | 5.0 | 11.0 | 0.00 | 0.00 | 0.00 | 30 | 1002.1 |
| 20260508181736 | 68 | 0 | 6.0 | 20.0 | 0.00 | 0.00 | 0.00 | 28 | 1002.1 |
| 20260508181004 | 68 | 306 | 6.0 | 20.0 | 0.00 | 0.00 | 0.00 | 31 | 1002.2 |
| 20260508180504 | 68 | 303 | 5.0 | 14.0 | 0.00 | 0.00 | 0.00 | 31 | 1002.2 |
| 20260508180006 | 67 | 317 | 5.0 | 13.0 | 0.00 | 0.00 | 0.00 | 30 | 1002.3 |
| 20260508175454 | 67 | 315 | 5.0 | 13.0 | 0.00 | 0.00 | 0.00 | 29 | 1002.4 |
| 20260508174952 | 67 | 328 | 4.0 | 11.0 | 0.00 | 0.00 | 0.00 | 30 | 1002.5 |
| 20260508174454 | 67 | 254 | 5.0 | 12.0 | 0.00 | 0.00 | 0.00 | 32 | 1002.5 |
| 20260508173949 | 66 | 344 | 6.0 | 18.0 | 0.00 | 0.00 | 0.00 | 33 | 1002.7 |
| 20260508173448 | 66 | 301 | 6.0 | 18.0 | 0.00 | 0.00 | 0.00 | 30 | 1002.8 |
| 20260508172949 | 66 | 275 | 5.0 | 12.0 | 0.00 | 0.00 | 0.00 | 33 | 1002.8 |
| 20260508172447 | 66 | 281 | 4.0 | 12.0 | 0.00 | 0.00 | 0.00 | 33 | 1002.9 |
| 20260508171948 | 65 | 322 | 3.0 | 10.0 | 0.00 | 0.00 | 0.00 | 32 | 1003.0 |
| 20260508171444 | 65 | 330 | 3.0 | 7.0 | 0.00 | 0.00 | 0.00 | 34 | 1003.1 |
| 20260508170941 | 64 | 242 | 3.0 | 11.0 | 0.00 | 0.00 | 0.00 | 38 | 1003.2 |
| 20260508170442 | 64 | 255 | 3.0 | 11.0 | 0.00 | 0.00 | 0.00 | 33 | 1003.2 |
| 20260508165937 | 63 | 261 | 3.0 | 10.0 | 0.00 | 0.00 | 0.00 | 34 | 1003.3 |
| 20260508165434 | 63 | 279 | 3.0 | 10.0 | 0.00 | 0.00 | 0.00 | 35 | 1003.4 |
| 20260508164929 | 63 | 331 | 4.0 | 9.0 | 0.00 | 0.00 | 0.00 | 36 | 1003.5 |
| 20260508164422 | 62 | 230 | 4.0 | 10.0 | 0.00 | 0.00 | 0.00 | 37 | 1003.5 |
| 20260508163921 | 62 | 291 | 4.0 | 12.0 | 0.00 | 0.00 | 0.00 | 38 | 1003.6 |
| 20260508163418 | 62 | 243 | 4.0 | 12.0 | 0.00 | 0.00 | 0.00 | 39 | 1003.6 |
| 20260508162919 | 62 | 265 | 4.0 | 9.0 | 0.00 | 0.00 | 0.00 | 36 | 1003.8 |
| 20260508162418 | 62 | 282 | 4.0 | 8.0 | 0.00 | 0.00 | 0.00 | 38 | 1003.9 |
| 20260508161910 | 61 | 225 | 5.0 | 10.0 | 0.00 | 0.00 | 0.00 | 41 | 1003.9 |
| 20260508161409 | 60 | 171 | 4.0 | 10.0 | 0.00 | 0.00 | 0.00 | 39 | 1003.8 |
| 20260508160906 | 60 | 303 | 2.0 | 9.0 | 0.00 | 0.00 | 0.00 | 45 | 1003.9 |
| 20260508160404 | 59 | 193 | 4.0 | 10.0 | 0.00 | 0.00 | 0.00 | 44 | 1003.9 |
| 20260508155903 | 58 | 306 | 5.0 | 10.0 | 0.00 | 0.00 | 0.00 | 43 | 1004.0 |
| 20260508155622 | 58 | 234 | 4.0 | 10.0 | 0.00 | 0.00 | 0.00 | 43 | 1004.1 |
| 20260508154855 | 57 | 288 | 3.0 | 10.0 | 0.00 | 0.00 | 0.00 | 44 | 1004.1 |
| 20260508154354 | 57 | 206 | 2.0 | 10.0 | 0.00 | 0.00 | 0.00 | 44 | 1004.2 |
| 20260508153851 | 57 | 279 | 3.0 | 10.0 | 0.00 | 0.00 | 0.00 | 44 | 1004.2 |
| 20260508153348 | 56 | 270 | 4.0 | 10.0 | 0.00 | 0.00 | 0.00 | 44 | 1004.3 |
| 20260508153108 | 56 | 286 | 5.0 | 10.0 | 0.00 | 0.00 | 0.00 | 45 | 1004.4 |
| 20260508152346 | 56 | 220 | 5.0 | 10.0 | 0.00 | 0.00 | 0.00 | 45 | 1004.4 |
| 20260508151843 | 56 | 175 | 4.0 | 9.0 | 0.00 | 0.00 | 0.00 | 47 | 1004.4 |
| 20260508151603 | 55 | 287 | 4.0 | 9.0 | 0.00 | 0.00 | 0.00 | 48 | 1004.4 |
| 20260508150840 | 55 | 263 | 4.0 | 9.0 | 0.00 | 0.00 | 0.00 | 47 | 1004.5 |
| 20260508150338 | 55 | 250 | 3.0 | 9.0 | 0.00 | 0.00 | 0.00 | 47 | 1004.6 |
| 20260508150113 | 54 | 258 | 3.0 | 11.0 | 0.00 | 0.00 | 0.00 | 46 | 1004.6 |
| 20260508145332 | 54 | 202 | 3.0 | 11.0 | 0.00 | 0.00 | 0.00 | 48 | 1004.8 |
| 20260508144830 | 54 | 274 | 3.0 | 6.0 | 0.00 | 0.00 | 0.00 | 48 | 1004.9 |
| 20260508144326 | 53 | 221 | 2.0 | 7.0 | 0.00 | 0.00 | 0.00 | 50 | 1004.9 |
| 20260508144047 | 53 | 257 | 2.0 | 7.0 | 0.00 | 0.00 | 0.00 | 50 | 1004.9 |
| 20260508143326 | 53 | 268 | 2.0 | 9.0 | 0.00 | 0.00 | 0.00 | 52 | 1005.0 |
| 20260508142822 | 52 | 234 | 2.0 | 9.0 | 0.00 | 0.00 | 0.00 | 50 | 1005.0 |
| 20260508142318 | 52 | 257 | 4.0 | 10.0 | 0.00 | 0.00 | 0.00 | 49 | 1005.0 |
| 20260508141818 | 52 | 226 | 3.0 | 10.0 | 0.00 | 0.00 | 0.00 | 50 | 1005.1 |
| 20260508141318 | 51 | 240 | 3.0 | 6.0 | 0.00 | 0.00 | 0.00 | 50 | 1005.1 |
| 20260508140816 | 51 | 229 | 2.0 | 7.0 | 0.00 | 0.00 | 0.00 | 53 | 1005.1 |
| 20260508140317 | 51 | 227 | 2.0 | 7.0 | 0.00 | 0.00 | 0.00 | 52 | 1005.2 |
| 20260508135818 | 50 | 201 | 1.0 | 6.0 | 0.00 | 0.00 | 0.00 | 53 | 1005.2 |
| 20260508135314 | 50 | 243 | 1.0 | 4.0 | 0.00 | 0.00 | 0.00 | 54 | 1005.2 |
| 20260508134814 | 49 | 244 | 2.0 | 4.0 | 0.00 | 0.00 | 0.00 | 54 | 1005.4 |
| 20260508134312 | 49 | 244 | 2.0 | 6.0 | 0.00 | 0.00 | 0.00 | 54 | 1005.3 |
| 20260508133808 | 49 | 242 | 2.0 | 6.0 | 0.00 | 0.00 | 0.00 | 56 | 1005.4 |
| 20260508133307 | 48 | 246 | 2.0 | 4.0 | 0.00 | 0.00 | 0.00 | 55 | 1005.4 |
| 20260508132807 | 47 | 258 | 1.0 | 4.0 | 0.00 | 0.00 | 0.00 | 57 | 1005.4 |
| 20260508132536 | 46 | 252 | 1.0 | 4.0 | 0.00 | 0.00 | 0.00 | 58 | 1005.4 |
| 20260508131802 | 45 | 252 | 1.0 | 4.0 | 0.00 | 0.00 | 0.00 | 61 | 1005.5 |
| 20260508131258 | 44 | 252 | 0.0 | 2.0 | 0.00 | 0.00 | 0.00 | 64 | 1005.5 |
| 20260508131233 | 43 | 251 | 0.0 | 2.0 | 0.00 | 0.00 | 0.00 | 67 | 1005.5 |
| 20260508130252 | 42 | 252 | 0.0 | 1.0 | 0.00 | 0.00 | 0.00 | 72 | 1005.5 |
| 20260508130013 | 41 | 252 | 0.0 | 1.0 | 0.00 | 0.00 | 0.00 | 76 | 1005.6 |
| 20260508125247 | 40 | 251 | 0.0 | 1.0 | 0.00 | 0.00 | 0.00 | 82 | 1005.7 |
| 20260508124747 | 39 | 251 | 0.0 | 0.0 | 0.00 | 0.00 | 0.00 | 83 | 1005.6 |
| 20260508124244 | 39 | 251 | 0.0 | 0.0 | 0.00 | 0.00 | 0.00 | 84 | 1005.6 |
| 20260508123746 | 38 | 251 | 0.0 | 0.0 | 0.00 | 0.00 | 0.00 | 84 | 1005.6 |
| 20260508123221 | 38 | 251 | 0.0 | 0.0 | 0.00 | 0.00 | 0.00 | 84 | 1005.5 |
| 20260508122933 | 37 | 251 | 0.0 | 0.0 | 0.00 | 0.00 | 0.00 | 85 | 1005.5 |
| 20260508122424 | 37 | 251 | 0.0 | 0.0 | 0.00 | 0.00 | 0.00 | 85 | 1005.6 |
| 20260508121913 | 36 | 251 | 0.0 | 0.0 | 0.00 | 0.00 | 0.00 | 86 | 1005.5 |
| 20260508121151 | 36 | 251 | 0.0 | 0.0 | 0.00 | 0.00 | 0.00 | 86 | 1005.5 |
| 20260508120905 | 35 | 251 | 0.0 | 0.0 | 0.00 | 0.00 | 0.00 | 85 | 1005.5 |
| 20260508120136 | 35 | 251 | 0.0 | 0.0 | 0.00 | 0.00 | 0.00 | 85 | 1005.5 |
| 20260508115610 | 35 | 251 | 0.0 | 0.0 | 0.00 | 0.00 | 0.00 | 85 | 1005.4 |
| 20260508115056 | 35 | 251 | 0.0 | 0.0 | 0.00 | 0.00 | 0.00 | 85 | 1005.4 |
| 20260508114556 | 35 | 251 | 0.0 | 0.0 | 0.00 | 0.00 | 0.00 | 85 | 1005.3 |
| 20260508114019 | 35 | 251 | 0.0 | 0.0 | 0.00 | 0.00 | 0.00 | 85 | 1005.3 |
| 20260508114003 | 35 | 252 | 0.0 | 0.0 | 0.00 | 0.00 | 0.00 | 84 | 1005.2 |
| 20260508113231 | 35 | 251 | 0.0 | 0.0 | 0.00 | 0.00 | 0.00 | 85 | 1005.2 |
| 20260508112505 | 35 | 251 | 0.0 | 0.0 | 0.00 | 0.00 | 0.00 | 84 | 1005.2 |
| 20260508111953 | 34 | 252 | 0.0 | 0.0 | 0.00 | 0.00 | 0.00 | 84 | 1005.2 |
| 20260508111441 | 34 | 251 | 0.0 | 0.0 | 0.00 | 0.00 | 0.00 | 83 | 1005.2 |
| 20260508110940 | 35 | 251 | 0.0 | 0.0 | 0.00 | 0.00 | 0.00 | 83 | 1005.3 |
| 20260508110709 | 35 | 251 | 0.0 | 0.0 | 0.00 | 0.00 | 0.00 | 82 | 1005.2 |
| 20260508105940 | 35 | 251 | 0.0 | 0.0 | 0.00 | 0.00 | 0.00 | 82 | 1005.2 |
| 20260508105701 | 35 | 251 | 0.0 | 0.0 | 0.00 | 0.00 | 0.00 | 81 | 1005.2 |
| 20260508105400 | 35 | 251 | 0.0 | 0.0 | 0.00 | 0.00 | 0.00 | 81 | 1005.2 |
| 20260508104418 | 35 | 251 | 0.0 | 0.0 | 0.00 | 0.00 | 0.00 | 81 | 1005.2 |
| 20260508103915 | 35 | 251 | 0.0 | 0.0 | 0.00 | 0.00 | 0.00 | 81 | 1005.2 |
| 20260508103414 | 36 | 251 | 0.0 | 0.0 | 0.00 | 0.00 | 0.00 | 81 | 1005.2 |
| 20260508102910 | 36 | 251 | 0.0 | 0.0 | 0.00 | 0.00 | 0.00 | 80 | 1005.2 |
| 20260508102412 | 36 | 251 | 0.0 | 0.0 | 0.00 | 0.00 | 0.00 | 80 | 1005.3 |
| 20260508101904 | 36 | 251 | 0.0 | 0.0 | 0.00 | 0.00 | 0.00 | 80 | 1005.3 |
| 20260508101403 | 36 | 252 | 0.0 | 1.0 | 0.00 | 0.00 | 0.00 | 79 | 1005.4 |
| 20260508100858 | 36 | 251 | 0.0 | 1.0 | 0.00 | 0.00 | 0.00 | 79 | 1005.4 |
| 20260508100348 | 37 | 251 | 0.0 | 1.0 | 0.00 | 0.00 | 0.00 | 79 | 1005.4 |
| 20260508095845 | 37 | 251 | 0.0 | 2.0 | 0.00 | 0.00 | 0.00 | 79 | 1005.3 |
| 20260508095332 | 37 | 251 | 0.0 | 2.0 | 0.00 | 0.00 | 0.00 | 79 | 1005.3 |
| 20260508094832 | 37 | 251 | 0.0 | 2.0 | 0.00 | 0.00 | 0.00 | 79 | 1005.3 |
| 20260508094330 | 37 | 251 | 0.0 | 0.0 | 0.00 | 0.00 | 0.00 | 79 | 1005.3 |
| 20260508093829 | 37 | 251 | 0.0 | 0.0 | 0.00 | 0.00 | 0.00 | 79 | 1005.2 |
| 20260508093314 | 37 | 251 | 0.0 | 0.0 | 0.00 | 0.00 | 0.00 | 79 | 1005.2 |
| 20260508092809 | 37 | 251 | 0.0 | 0.0 | 0.00 | 0.00 | 0.00 | 78 | 1005.2 |
| 20260508092522 | 37 | 251 | 0.0 | 0.0 | 0.00 | 0.00 | 0.00 | 78 | 1005.2 |
| 20260508091742 | 37 | 251 | 0.0 | 0.0 | 0.00 | 0.00 | 0.00 | 78 | 1005.2 |
| 20260508091234 | 37 | 251 | 0.0 | 1.0 | 0.00 | 0.00 | 0.00 | 78 | 1005.2 |
| 20260508090730 | 37 | 251 | 0.0 | 1.0 | 0.00 | 0.00 | 0.00 | 78 | 1005.2 |
| 20260508090219 | 37 | 251 | 0.0 | 1.0 | 0.00 | 0.00 | 0.00 | 78 | 1005.2 |
| 20260508085706 | 37 | 251 | 0.0 | 1.0 | 0.00 | 0.00 | 0.00 | 78 | 1005.3 |
| 20260508085412 | 37 | 251 | 0.0 | 0.0 | 0.00 | 0.00 | 0.00 | 78 | 1005.2 |
| 20260508084641 | 37 | 251 | 0.0 | 0.0 | 0.00 | 0.00 | 0.00 | 78 | 1005.2 |
| 20260508084106 | 37 | 251 | 0.0 | 0.0 | 0.00 | 0.00 | 0.00 | 78 | 1005.2 |
| 20260508083550 | 37 | 251 | 0.0 | 0.0 | 0.00 | 0.00 | 0.00 | 78 | 1005.2 |
| 20260508083042 | 37 | 251 | 0.0 | 0.0 | 0.00 | 0.00 | 0.00 | 77 | 1005.3 |
| 20260508082534 | 37 | 251 | 0.0 | 1.0 | 0.00 | 0.00 | 0.00 | 77 | 1005.3 |
| 20260508082026 | 37 | 251 | 0.0 | 1.0 | 0.00 | 0.00 | 0.00 | 77 | 1005.4 |
| 20260508081520 | 38 | 251 | 0.0 | 1.0 | 0.00 | 0.00 | 0.00 | 76 | 1005.4 |
| 20260508081017 | 38 | 251 | 0.0 | 1.0 | 0.00 | 0.00 | 0.00 | 77 | 1005.4 |
| 20260508080510 | 38 | 251 | 0.0 | 1.0 | 0.00 | 0.00 | 0.00 | 76 | 1005.4 |
| 20260508080010 | 38 | 251 | 0.0 | 1.0 | 0.00 | 0.00 | 0.00 | 76 | 1005.4 |
| 20260508075506 | 38 | 251 | 0.0 | 1.0 | 0.00 | 0.00 | 0.00 | 76 | 1005.5 |
| 20260508075218 | 38 | 251 | 0.0 | 1.0 | 0.00 | 0.00 | 0.00 | 76 | 1005.4 |
| 20260508074442 | 38 | 251 | 0.0 | 1.0 | 0.00 | 0.00 | 0.00 | 75 | 1005.4 |
| 20260508073942 | 38 | 251 | 0.0 | 1.0 | 0.00 | 0.00 | 0.00 | 75 | 1005.5 |
| 20260508073427 | 38 | 251 | 0.0 | 0.0 | 0.00 | 0.00 | 0.00 | 74 | 1005.5 |
| 20260508072928 | 39 | 251 | 0.0 | 0.0 | 0.00 | 0.00 | 0.00 | 74 | 1005.5 |
| 20260508072420 | 39 | 251 | 0.0 | 0.0 | 0.00 | 0.00 | 0.00 | 74 | 1005.5 |
| 20260508071912 | 39 | 251 | 0.0 | 1.0 | 0.00 | 0.00 | 0.00 | 74 | 1005.6 |
| 20260508071602 | 39 | 251 | 0.0 | 1.0 | 0.00 | 0.00 | 0.00 | 74 | 1005.6 |
| 20260508070841 | 39 | 251 | 0.0 | 1.0 | 0.00 | 0.00 | 0.00 | 74 | 1005.7 |
| 20260508070329 | 39 | 251 | 0.0 | 1.0 | 0.00 | 0.00 | 0.00 | 74 | 1005.7 |
| 20260508070048 | 39 | 251 | 0.0 | 1.0 | 0.00 | 0.00 | 0.00 | 72 | 1005.7 |
| 20260508065328 | 39 | 251 | 0.0 | 2.0 | 0.00 | 0.00 | 0.00 | 71 | 1005.7 |
| 20260508064815 | 39 | 251 | 0.0 | 2.0 | 0.00 | 0.00 | 0.00 | 71 | 1005.7 |
| 20260508064537 | 40 | 251 | 0.0 | 0.0 | 0.00 | 0.00 | 0.00 | 71 | 1005.7 |
| 20260508063816 | 40 | 251 | 0.0 | 1.0 | 0.00 | 0.00 | 0.00 | 71 | 1005.8 |
| 20260508063244 | 40 | 251 | 0.0 | 1.0 | 0.00 | 0.00 | 0.00 | 71 | 1005.8 |
| 20260508063002 | 40 | 251 | 0.0 | 0.0 | 0.00 | 0.00 | 0.00 | 71 | 1005.8 |
| 20260508062242 | 40 | 251 | 0.0 | 0.0 | 0.00 | 0.00 | 0.00 | 70 | 1005.8 |
| 20260508061718 | 40 | 251 | 0.0 | 1.0 | 0.00 | 0.00 | 0.00 | 70 | 1005.9 |
| 20260508061434 | 40 | 251 | 0.0 | 1.0 | 0.00 | 0.00 | 0.00 | 70 | 1005.9 |
| 20260508060647 | 40 | 251 | 0.0 | 1.0 | 0.00 | 0.00 | 0.00 | 69 | 1006.0 |
| 20260508060140 | 40 | 251 | 0.0 | 1.0 | 0.00 | 0.00 | 0.00 | 69 | 1006.0 |
| 20260508055605 | 40 | 251 | 0.0 | 0.0 | 0.00 | 0.00 | 0.00 | 69 | 1006.0 |
| 20260508055105 | 40 | 251 | 0.0 | 2.0 | 0.00 | 0.00 | 0.00 | 69 | 1006.1 |
| 20260508054605 | 40 | 251 | 0.0 | 2.0 | 0.00 | 0.00 | 0.00 | 69 | 1006.1 |
| 20260508054106 | 40 | 252 | 0.0 | 2.0 | 0.00 | 0.00 | 0.00 | 70 | 1006.1 |
| 20260508053553 | 40 | 252 | 0.0 | 2.0 | 0.00 | 0.00 | 0.00 | 69 | 1006.1 |
| 20260508053041 | 40 | 252 | 0.0 | 1.0 | 0.00 | 0.00 | 0.00 | 69 | 1006.2 |
| 20260508052542 | 40 | 252 | 0.0 | 1.0 | 0.00 | 0.00 | 0.00 | 69 | 1006.2 |
| 20260508052038 | 40 | 252 | 0.0 | 1.0 | 0.00 | 0.00 | 0.00 | 68 | 1006.2 |
| 20260508051522 | 40 | 252 | 0.0 | 1.0 | 0.00 | 0.00 | 0.00 | 68 | 1006.2 |
| 20260508051447 | 40 | 252 | 0.0 | 1.0 | 0.00 | 0.00 | 0.00 | 68 | 1006.2 |
| 20260508050452 | 40 | 252 | 0.0 | 1.0 | 0.00 | 0.00 | 0.00 | 68 | 1006.2 |
| 20260508045937 | 41 | 252 | 0.0 | 1.0 | 0.00 | 0.00 | 0.00 | 67 | 1006.3 |
| 20260508045428 | 41 | 252 | 0.0 | 1.0 | 0.00 | 0.00 | 0.00 | 67 | 1006.3 |
| 20260508045147 | 41 | 252 | 0.0 | 1.0 | 0.00 | 0.00 | 0.00 | 66 | 1006.3 |
| 20260508044423 | 41 | 252 | 0.0 | 1.0 | 0.00 | 0.00 | 0.00 | 66 | 1006.3 |
| 20260508043922 | 41 | 252 | 0.0 | 0.0 | 0.00 | 0.00 | 0.00 | 67 | 1006.4 |
| 20260508043419 | 41 | 252 | 0.0 | 0.0 | 0.00 | 0.00 | 0.00 | 66 | 1006.4 |
| 20260508042917 | 42 | 252 | 0.0 | 0.0 | 0.00 | 0.00 | 0.00 | 66 | 1006.4 |
| 20260508042411 | 42 | 252 | 0.0 | 0.0 | 0.00 | 0.00 | 0.00 | 66 | 1006.5 |
| 20260508041907 | 42 | 252 | 0.0 | 0.0 | 0.00 | 0.00 | 0.00 | 65 | 1006.5 |
| 20260508041406 | 42 | 252 | 0.0 | 0.0 | 0.00 | 0.00 | 0.00 | 65 | 1006.5 |
| 20260508040905 | 43 | 252 | 0.0 | 0.0 | 0.00 | 0.00 | 0.00 | 64 | 1006.5 |
| 20260508040615 | 43 | 252 | 0.0 | 0.0 | 0.00 | 0.00 | 0.00 | 64 | 1006.6 |
| 20260508035844 | 43 | 252 | 0.0 | 0.0 | 0.00 | 0.00 | 0.00 | 63 | 1006.5 |
| 20260508035343 | 43 | 252 | 0.0 | 0.0 | 0.00 | 0.00 | 0.00 | 62 | 1006.6 |
| 20260508034810 | 44 | 252 | 0.0 | 0.0 | 0.00 | 0.00 | 0.00 | 59 | 1006.7 |
| 20260508034305 | 44 | 252 | 0.0 | 1.0 | 0.00 | 0.00 | 0.00 | 57 | 1006.6 |
| 20260508033729 | 44 | 252 | 0.0 | 1.0 | 0.00 | 0.00 | 0.00 | 56 | 1006.8 |
| 20260508033220 | 44 | 252 | 0.0 | 1.0 | 0.00 | 0.00 | 0.00 | 55 | 1006.8 |
| 20260508032703 | 45 | 252 | 0.0 | 1.0 | 0.00 | 0.00 | 0.00 | 55 | 1006.7 |
| 20260508032146 | 45 | 252 | 0.0 | 1.0 | 0.00 | 0.00 | 0.00 | 55 | 1006.7 |
| 20260508031636 | 45 | 252 | 0.0 | 0.0 | 0.00 | 0.00 | 0.00 | 55 | 1006.7 |
| 20260508031109 | 46 | 252 | 0.0 | 1.0 | 0.00 | 0.00 | 0.00 | 54 | 1006.7 |
| 20260508030601 | 46 | 252 | 0.0 | 1.0 | 0.00 | 0.00 | 0.00 | 54 | 1006.8 |
| 20260508030104 | 46 | 252 | 0.0 | 0.0 | 0.00 | 0.00 | 0.00 | 53 | 1006.8 |
| 20260508025604 | 47 | 252 | 0.0 | 0.0 | 0.00 | 0.00 | 0.00 | 53 | 1006.8 |
| 20260508025311 | 47 | 252 | 0.0 | 0.0 | 0.00 | 0.00 | 0.00 | 52 | 1006.8 |
| 20260508024523 | 48 | 252 | 0.0 | 2.0 | 0.00 | 0.00 | 0.00 | 51 | 1006.7 |
| 20260508024007 | 48 | 252 | 1.0 | 2.0 | 0.00 | 0.00 | 0.00 | 51 | 1006.7 |
| 20260508023454 | 48 | 252 | 1.0 | 2.0 | 0.00 | 0.00 | 0.00 | 50 | 1006.7 |
| 20260508023222 | 49 | 252 | 0.0 | 1.0 | 0.00 | 0.00 | 0.00 | 50 | 1006.7 |
| 20260508022447 | 49 | 252 | 0.0 | 1.0 | 0.00 | 0.00 | 0.00 | 51 | 1006.7 |
| 20260508021949 | 50 | 252 | 0.0 | 1.0 | 0.00 | 0.00 | 0.00 | 47 | 1006.6 |